| time (UTC) | temp F | wind direction | speed MPH | gust MPH | rain 1hr in | rain 24hr in | rain mn in | humidity % | barometer mb |
| 20260505193029 | 71 | 26 | 4.0 | 10.0 | 0.00 | 0.00 | 0.00 | 53 | 1019.3 |
| 20260505191549 | 70 | 27 | 6.0 | 13.0 | 0.00 | 0.00 | 0.00 | 54 | 1019.3 |
| 20260505190031 | 71 | 2 | 6.0 | 11.0 | 0.00 | 0.00 | 0.00 | 54 | 1019.4 |
| 20260505184529 | 69 | 19 | 5.0 | 10.0 | 0.00 | 0.00 | 0.00 | 55 | 1019.5 |
| 20260505183145 | 68 | 11 | 6.0 | 12.0 | 0.00 | 0.00 | 0.00 | 57 | 1019.6 |
| 20260505181537 | 67 | 356 | 5.0 | 10.0 | 0.00 | 0.00 | 0.00 | 59 | 1019.5 |
| 20260505180030 | 66 | 354 | 5.0 | 12.0 | 0.00 | 0.00 | 0.00 | 60 | 1019.5 |
| 20260505173030 | 67 | 14 | 5.0 | 10.0 | 0.00 | 0.00 | 0.00 | 60 | 1019.5 |
| 20260505171531 | 66 | 16 | 4.0 | 8.0 | 0.00 | 0.00 | 0.00 | 60 | 1019.4 |
| 20260505170047 | 65 | 34 | 5.0 | 9.0 | 0.00 | 0.00 | 0.00 | 62 | 1019.5 |
| 20260505164530 | 64 | 20 | 4.0 | 8.0 | 0.00 | 0.00 | 0.00 | 63 | 1019.5 |
| 20260505163036 | 64 | 8 | 5.0 | 8.0 | 0.00 | 0.00 | 0.00 | 64 | 1019.5 |
| 20260505161530 | 63 | 13 | 5.0 | 9.0 | 0.00 | 0.00 | 0.00 | 65 | 1019.5 |
| 20260505153031 | 60 | 6 | 5.0 | 7.0 | 0.00 | 0.00 | 0.00 | 73 | 1019.1 |
| 20260505151537 | 60 | 352 | 3.0 | 5.0 | 0.00 | 0.00 | 0.00 | 75 | 1019.1 |
| 20260505124529 | 47 | 179 | 4.0 | 6.0 | 0.00 | 0.00 | 0.00 | 90 | 1017.7 |
| 20260505123036 | 47 | 180 | 4.0 | 7.0 | 0.00 | 0.00 | 0.00 | 90 | 1017.6 |
| 20260505121534 | 47 | 176 | 5.0 | 7.0 | 0.00 | 0.00 | 0.00 | 89 | 1017.4 |
| 20260505120033 | 47 | 180 | 6.0 | 7.0 | 0.00 | 0.00 | 0.00 | 89 | 1017.5 |
| 20260505114532 | 47 | 180 | 6.0 | 7.0 | 0.00 | 0.00 | 0.00 | 88 | 1017.4 |
| 20260505113033 | 48 | 180 | 5.0 | 8.0 | 0.00 | 0.00 | 0.00 | 88 | 1017.3 |
| 20260505111531 | 48 | 180 | 7.0 | 8.0 | 0.00 | 0.00 | 0.00 | 87 | 1017.2 |
| 20260505101625 | 49 | 179 | 6.0 | 7.0 | 0.00 | 0.00 | 0.00 | 84 | 1016.9 |
| 20260505100045 | 49 | 180 | 5.0 | 7.0 | 0.00 | 0.00 | 0.00 | 84 | 1016.8 |
| 20260505094602 | 50 | 177 | 4.0 | 7.0 | 0.00 | 0.00 | 0.00 | 82 | 1016.8 |
| 20260505093031 | 51 | 177 | 4.0 | 7.0 | 0.00 | 0.00 | 0.00 | 81 | 1016.7 |
| 20260505091530 | 51 | 178 | 6.0 | 7.0 | 0.00 | 0.00 | 0.00 | 81 | 1016.7 |
| 20260505090036 | 51 | 178 | 5.0 | 7.0 | 0.00 | 0.00 | 0.00 | 80 | 1016.5 |
| 20260505084531 | 52 | 180 | 4.0 | 6.0 | 0.00 | 0.00 | 0.00 | 78 | 1016.6 |
| 20260505081532 | 54 | 156 | 3.0 | 6.0 | 0.00 | 0.00 | 0.00 | 75 | 1016.6 |
| 20260505074530 | 56 | 263 | 1.0 | 4.0 | 0.00 | 0.00 | 0.00 | 73 | 1016.5 |
| 20260505073103 | 56 | 234 | 0.0 | 4.0 | 0.00 | 0.00 | 0.00 | 72 | 1016.4 |
| 20260505071531 | 57 | 199 | 2.0 | 4.0 | 0.00 | 0.00 | 0.00 | 70 | 1016.2 |
| 20260505064532 | 58 | 99 | 0.0 | 4.0 | 0.00 | 0.00 | 0.00 | 67 | 1016.1 |
| 20260505063029 | 58 | 199 | 1.0 | 4.0 | 0.00 | 0.00 | 0.00 | 65 | 1016.2 |
| 20260505061532 | 58 | 173 | 4.0 | 6.0 | 0.00 | 0.00 | 0.00 | 63 | 1016.1 |
| 20260505060035 | 58 | 165 | 5.0 | 7.0 | 0.00 | 0.00 | 0.00 | 63 | 1016.1 |
| 20260505041530 | 65 | 196 | 2.0 | 6.0 | 0.00 | 0.00 | 0.00 | 49 | 1015.3 |
| 20260505040051 | 66 | 198 | 2.0 | 5.0 | 0.00 | 0.00 | 0.00 | 48 | 1015.1 |
| 20260505034529 | 66 | 241 | 3.0 | 8.0 | 0.00 | 0.00 | 0.00 | 47 | 1014.9 |
| 20260505033031 | 68 | 278 | 2.0 | 4.0 | 0.00 | 0.00 | 0.00 | 45 | 1014.7 |
| 20260505031535 | 70 | 296 | 4.0 | 7.0 | 0.00 | 0.00 | 0.00 | 42 | 1014.5 |
| 20260505024531 | 73 | 262 | 7.0 | 13.0 | 0.00 | 0.00 | 0.00 | 38 | 1014.1 |
| 20260505021530 | 76 | 273 | 10.0 | 16.0 | 0.00 | 0.00 | 0.00 | 34 | 1013.9 |
| 20260505020033 | 77 | 271 | 8.0 | 15.0 | 0.00 | 0.00 | 0.00 | 33 | 1013.9 |
| 20260505014531 | 78 | 277 | 11.0 | 19.0 | 0.00 | 0.00 | 0.00 | 31 | 1013.8 |
| 20260505013037 | 79 | 275 | 12.0 | 21.0 | 0.00 | 0.00 | 0.00 | 30 | 1013.8 |
| 20260505010106 | 80 | 275 | 12.0 | 21.0 | 0.00 | 0.00 | 0.00 | 30 | 1013.7 |
| 20260505004530 | 81 | 271 | 13.0 | 19.0 | 0.00 | 0.00 | 0.00 | 30 | 1013.7 |
| 20260505003031 | 80 | 294 | 11.0 | 17.0 | 0.00 | 0.00 | 0.00 | 36 | 1013.8 |
| 20260505001532 | 79 | 346 | 11.0 | 16.0 | 0.00 | 0.00 | 0.00 | 40 | 1013.8 |
| 20260505000029 | 80 | 357 | 11.0 | 17.0 | 0.00 | 0.00 | 0.00 | 39 | 1013.8 |
| 20260504233032 | 80 | 359 | 11.0 | 16.0 | 0.00 | 0.00 | 0.00 | 38 | 1013.9 |
| 20260504230030 | 81 | 2 | 12.0 | 17.0 | 0.00 | 0.00 | 0.00 | 37 | 1014.2 |
| 20260504224533 | 81 | 341 | 11.0 | 17.0 | 0.00 | 0.00 | 0.00 | 33 | 1014.3 |
| 20260504223029 | 82 | 323 | 9.0 | 17.0 | 0.00 | 0.00 | 0.00 | 32 | 1014.5 |
| 20260504220107 | 81 | 330 | 6.0 | 14.0 | 0.00 | 0.00 | 0.00 | 30 | 1014.8 |
| 20260504214530 | 81 | 301 | 7.0 | 12.0 | 0.00 | 0.00 | 0.00 | 30 | 1014.9 |
| 20260504213031 | 80 | 315 | 6.0 | 12.0 | 0.00 | 0.00 | 0.00 | 30 | 1015.0 |
| 20260504211608 | 80 | 357 | 6.0 | 12.0 | 0.00 | 0.00 | 0.00 | 30 | 1015.1 |
| 20260504210150 | 80 | 3 | 8.0 | 16.0 | 0.00 | 0.00 | 0.00 | 30 | 1015.2 |
| 20260504194530 | 79 | 335 | 11.0 | 16.0 | 0.00 | 0.00 | 0.00 | 34 | 1015.6 |